Probability
0 0 0 0 0 0 0 0 0 0 2 5 7 7 7 9 12 13 11 10 11 11 12 12 11 10 12 13 13 13 12 11 10 10 9 7 5 3 3 4 5 6 7 7
0 0 0 0 0 0 0 0 0 0 2 5 8 7 6 8 11 12 10 9 11 13 13 11 9 9 10 12 12 12 11 10 10 9 8 6 5 4 4 3 3 5 6 6
0 0 0 0 0 0 0 0 0 1 2 5 7 7 6 6 8 9 9 9 10 12 11 9 7 7 9 11 11 11 10 10 9 8 6 5 5 5 4 2 2 3 4 5
0 0 0 0 0 0 0 0 1 1 2 4 5 6 6 5 5 6 7 8 7 7 7 6 5 6 9 10 11 10 10 10 10 7 5 4 4 4 4 3 1 1 3 4
0 0 0 0 0 0 0 0 0 1 3 4 5 6 6 4 3 4 5 5 3 3 4 4 5 7 9 11 11 11 10 10 9 6 4 3 3 3 3 3 1 1 2 3
0 0 0 0 0 0 0 0 0 1 3 6 7 6 5 4 4 5 6 5 3 2 3 4 5 7 9 10 10 9 9 8 7 6 5 4 3 3 3 2 1 0 1 2
0 0 0 0 0 0 0 0 1 2 4 7 8 6 6 5 6 6 7 6 4 3 3 4 4 6 7 7 7 7 7 7 6 6 6 4 3 3 3 2 1 0 0 1
0 0 0 0 0 0 0 2 3 4 6 7 7 7 7 7 6 5 5 4 4 3 2 2 3 4 4 4 4 5 6 6 6 6 6 5 4 3 2 1 0 0 0 0
0 0 0 0 0 0 1 4 5 6 7 7 6 6 7 6 4 3 2 1 1 1 1 1 1 2 2 2 3 4 5 5 6 6 6 6 5 4 1 0 0 0 0 0
0 0 0 0 0 0 2 4 6 6 7 6 5 5 4 4 3 1 0 0 0 0 0 0 0 1 1 1 2 4 4 4 4 4 4 5 5 4 2 0 0 0 0 0
0 0 0 0 0 1 2 4 4 4 4 4 4 3 2 2 2 1 0 0 0 0 0 0 0 0 0 1 2 3 4 3 3 3 3 4 4 3 2 0 0 0 0 0
0 0 0 0 0 1 2 3 3 3 3 3 3 1 1 1 1 0 0 0 0 0 0 0 1 1 0 1 2 3 3 3 3 3 3 3 3 1 1 0 0 0 0 0
0 0 0 0 0 0 1 2 2 2 2 2 2 1 0 0 0 0 0 0 0 0 1 1 2 2 1 1 2 3 3 3 3 3 3 3 2 1 0 0 0 0 0 0
0 0 0 0 0 0 0 1 1 1 1 1 1 0 0 0 0 0 0 0 0 1 2 2 2 2 1 1 2 3 3 3 3 3 3 3 2 1 0 0 0 0 0 0
0 0 0 0 0 0 0 0 0 0 0 0 0 0 0 0 0 0 0 0 0 1 3 3 2 1 1 1 2 3 3 3 3 3 3 3 2 1 0 0 0 0 0 0
0 0 0 0 0 0 0 0 0 0 0 0 0 0 0 0 0 0 0 0 1 2 3 3 1 1 2 2 3 3 3 3 3 3 3 2 1 0 0 0 0 0 0 0
0 0 0 0 0 0 0 0 0 0 0 0 0 0 0 0 0 0 0 0 1 3 3 2 1 1 2 3 3 3 3 3 3 3 2 1 0 0 0 0 0 0 0 0
0 0 0 0 0 0 0 0 0 0 0 0 0 0 0 0 0 0 0 1 2 3 3 2 1 0 1 3 3 3 3 3 3 2 1 0 0 0 0 0 0 0 0 0
0 0 0 0 0 0 0 0 0 0 0 0 0 0 0 0 0 0 0 1 3 3 3 1 0 0 1 2 3 3 3 3 2 1 0 0 0 0 0 0 0 0 0 0
0 0 0 0 0 0 0 0 0 0 0 0 0 0 0 0 0 0 1 2 3 3 2 1 0 0 0 1 2 3 3 2 1 0 0 0 0 0 0 0 0 0 0 0
0 0 0 0 0 0 0 0 0 0 0 0 0 0 0 0 0 0 1 2 2 2 1 0 0 0 0 0 1 2 1 1 0 0 0 0 0 0 0 0 0 0 0 0
0 0 0 0 0 0 0 0 0 0 0 0 0 0 0 0 0 0 0 1 1 1 0 0 0 0 0 0 0 0 0 0 0 0 0 0 0 0 0 0 0 0 0 0
0 0 0 0 0 0 0 0 0 0 0 0 0 0 0 0 0 0 0 0 0 0 0 0 0 0 0 0 0 0 0 0 0 0 0 0 0 0 0 0 0 0 0 0
0 0 0 0 0 0 0 0 0 0 0 0 0 0 0 0 0 0 0 0 0 0 0 0 0 0 0 0 0 0 0 0 0 0 0 0 0 0 0 0 0 0 0 0
0 0 0 0 0 0 0 0 0 0 0 0 0 0 0 0 0 0 0 0 0 0 0 0 0 0 0 0 0 0 0 0 0 0 0 0 0 0 0 0 0 0 0 0
0 0 0 0 0 0 0 0 0 0 0 0 0 0 0 0 0 0 0 0 0 0 0 0 0 0 0 0 0 0 0 0 0 0 0 0 0 0 0 0 0 0 0 0
0 0 0 0 0 0 0 0 0 0 0 0 0 0 1 1 1 0 0 0 0 0 0 0 0 0 0 0 0 0 0 0 0 0 0 0 0 0 0 0 0 0 0 0
Wind_Speed
3 2 1 2 3 1 1 4 4 4 4 5 4 4 4 4 4 5 4 4 4 3 2 1 1 1 2 2 2 2 3 3 2 2 2 2 2 2 2 2 2 2 3 3
2 1 2 4 3 2 2 2 3 2 3 3 2 3 3 3 5 6 4 3 3 3 3 2 1 2 2 2 2 2 3 2 2 2 2 2 2 2 2 2 1 2 3 3
2 3 3 4 3 2 1 1 2 4 4 3 3 4 4 3 4 4 4 3 3 3 3 2 1 2 2 2 2 2 2 2 2 3 3 2 2 2 2 2 1 1 1 2
1 2 3 5 2 1 1 2 1 2 3 5 4 3 3 4 4 4 3 2 2 2 2 1 1 2 2 3 3 3 2 2 2 2 2 2 2 1 1 1 1 1 1 2
2 2 4 4 3 1 1 2 1 3 4 4 4 3 2 1 4 3 3 2 2 3 2 2 2 3 3 3 3 3 2 1 1 2 2 1 1 1 1 1 1 1 2 2
2 2 4 5 5 3 3 1 2 4 5 4 5 2 3 1 2 2 2 2 2 2 3 2 1 2 3 3 3 2 1 1 1 1 2 1 2 1 1 1 1 1 1 1
2 3 4 4 5 3 2 5 3 2 4 4 3 4 4 3 2 3 3 3 3 3 3 1 1 3 3 2 2 2 2 1 1 1 1 1 1 1 1 1 1 1 1 1
2 2 6 4 2 1 3 2 1 1 3 3 2 2 3 4 3 4 3 3 3 3 2 1 1 3 3 1 1 1 1 1 1 1 1 1 1 1 1 1 1 1 1 2
4 5 4 2 2 2 2 1 1 1 1 3 4 4 4 3 4 3 3 2 2 3 2 2 1 2 2 1 0 1 1 1 1 1 1 1 1 1 0 1 1 1 1 2
1 3 2 1 1 1 1 1 1 1 3 4 4 4 4 4 3 3 2 2 1 2 2 1 1 1 1 1 0 1 1 0 0 0 1 0 1 1 1 1 2 2 2 2
1 3 1 1 0 0 1 2 2 1 3 4 5 4 3 3 3 3 2 1 2 2 2 1 0 0 1 1 0 1 1 1 0 0 0 0 1 1 2 2 3 3 3 3
5 5 4 3 2 0 2 2 1 2 3 4 5 4 3 3 3 3 3 1 1 1 1 0 0 0 1 1 1 1 1 1 1 1 1 0 0 2 3 3 3 3 4 3
4 3 3 3 2 1 2 2 2 3 4 4 4 5 4 3 2 2 2 2 2 1 1 1 1 1 2 2 0 1 1 1 1 1 1 1 1 1 2 3 3 3 4 4
3 3 2 1 2 1 2 3 2 3 3 4 3 4 3 3 2 3 2 2 2 2 2 1 1 2 3 1 1 1 1 1 2 2 1 1 1 1 1 1 2 3 3 4
3 3 3 3 2 2 2 2 3 3 3 3 3 4 3 3 3 2 1 1 2 2 1 1 1 3 3 1 1 1 1 1 1 1 1 1 1 1 1 1 1 2 2 3
3 3 3 3 3 3 3 3 3 3 3 3 4 4 4 3 3 2 1 2 2 1 0 1 2 3 2 1 1 1 1 2 1 1 1 1 1 1 1 1 1 2 2 2
3 3 3 3 3 3 4 4 4 4 4 4 4 4 4 3 3 2 1 1 2 1 1 1 2 2 2 1 1 1 1 2 2 1 1 2 1 2 2 2 2 2 3 3
4 5 4 4 4 4 3 3 3 3 3 3 4 4 4 4 3 2 2 1 1 0 1 2 2 1 2 1 1 1 1 1 1 1 1 1 1 1 2 2 2 2 2 3
2 3 3 4 4 4 4 4 4 4 3 4 4 4 3 3 3 2 1 2 1 1 3 3 3 2 2 2 1 1 1 1 1 1 1 2 1 1 1 2 2 2 2 1
1 3 4 4 3 4 4 4 4 3 3 4 4 3 2 1 2 1 1 2 2 3 3 3 2 2 2 2 2 1 1 1 1 1 1 1 1 2 2 2 2 2 1 1
2 3 4 4 3 3 4 5 4 3 3 4 4 4 3 2 1 1 1 1 3 2 2 2 1 1 1 1 1 1 1 1 2 2 2 1 1 2 2 2 2 2 2 2
1 2 3 4 3 3 3 4 4 4 3 3 3 3 2 1 0 0 1 2 3 2 1 1 1 2 1 1 1 1 2 1 2 1 1 1 1 1 2 2 2 2 2 2
1 2 3 4 4 3 2 3 3 3 3 3 3 2 2 2 1 1 2 3 2 3 2 2 3 4 3 1 1 1 2 1 1 1 1 1 1 1 1 2 2 2 2 2
1 2 3 3 3 3 2 1 2 2 2 2 2 3 2 1 2 2 3 3 4 4 3 3 5 5 3 1 1 1 1 1 1 1 1 1 1 1 1 1 1 1 2 2
2 2 3 3 3 3 3 2 2 2 2 1 1 2 2 2 3 3 2 2 3 3 2 3 4 4 2 1 1 1 1 1 1 1 1 0 1 1 1 1 1 1 1 1
1 1 2 3 3 2 2 2 2 2 2 1 1 2 2 2 2 2 2 2 2 2 2 2 2 1 1 1 1 1 1 1 1 1 1 0 0 0 0 1 1 1 1 1
1 1 1 1 0 1 1 2 2 2 2 3 3 3 2 2 2 1 1 1 1 1 1 1 1 1 1 0 0 1 1 1 0 0 0 0 0 1 1 1 0 0 1 1
Wind_Direction
220 249 327 333 306 335 205 203 198 226 215 232 196 168 147 134 134 123 113 115 119 123 121 114 147 159 148 143 139 148 142 145 164 174 166 158 160 163 166 167 177 186 180 186
317 323 342 324 314 296 269 243 213 209 251 231 149 121 117 123 124 122 121 120 130 129 124 126 148 138 121 129 135 132 134 150 157 141 140 146 158 161 159 171 189 180 189 189
288 308 348 301 285 248 269 281 202 226 231 157 126 130 147 150 129 126 128 120 127 132 131 131 141 129 132 141 130 123 134 140 134 126 127 140 147 140 166 176 175 190 197 187
204 13 249 254 272 190 117 347 25 128 143 149 154 163 154 141 129 121 123 126 142 141 130 118 115 115 112 110 115 118 118 125 133 130 133 134 125 146 174 167 164 179 190 203
133 196 266 289 306 305 220 317 14 122 124 105 99 78 50 107 124 138 158 156 165 155 139 132 129 130 108 98 106 109 116 131 141 145 144 145 162 201 198 162 170 184 187 195
136 172 237 270 299 315 98 266 296 122 132 136 112 117 232 213 127 119 124 138 132 113 105 108 132 126 114 115 114 129 155 166 162 153 149 163 192 204 188 170 189 188 204 208
163 212 251 278 311 23 110 249 281 137 141 143 156 194 203 179 147 130 128 126 113 106 98 107 137 122 120 122 156 185 174 148 148 151 165 177 177 190 179 168 163 181 237 262
161 203 250 295 16 122 226 258 242 163 153 134 128 119 125 129 127 109 99 107 113 103 81 58 99 116 115 146 234 173 146 150 187 198 190 154 155 193 172 153 161 228 249 284
184 215 247 265 190 204 169 190 220 176 165 127 123 129 128 128 126 115 106 103 103 109 90 51 54 113 131 246 11 102 129 180 223 221 205 178 171 186 185 163 193 240 242 256
163 254 257 279 9 26 105 168 221 150 127 120 119 134 132 135 131 125 117 115 108 106 102 71 19 98 174 237 139 127 135 158 293 287 302 297 183 181 193 214 218 230 236 241
223 250 284 310 281 261 94 85 80 79 123 128 125 134 142 145 148 149 145 138 131 136 137 174 229 273 296 286 155 168 182 175 193 309 293 309 297 248 227 239 228 212 219 214
221 218 190 230 247 96 96 107 137 143 128 131 137 142 140 154 163 156 152 132 119 125 149 210 139 322 310 291 205 166 185 192 176 189 248 260 324 331 315 290 293 243 223 215
200 201 182 195 190 134 148 178 189 151 145 151 144 136 133 144 161 149 136 128 137 149 141 97 29 326 309 307 354 142 193 207 206 206 231 249 240 255 306 326 329 307 282 268
151 126 126 153 186 198 178 188 170 136 132 136 139 126 123 123 124 130 147 158 142 113 92 70 29 335 317 328 16 348 278 228 217 215 224 237 248 249 242 260 298 306 297 281
168 160 184 191 191 200 176 147 122 123 134 138 133 128 128 128 138 150 165 135 96 92 77 51 18 327 322 342 354 323 295 269 241 228 223 226 244 250 252 257 262 279 306 315
169 148 149 152 173 178 162 152 142 153 160 153 143 141 144 141 135 125 131 122 111 117 292 334 317 303 311 325 332 320 300 294 265 227 225 234 245 251 260 265 276 276 270 275
152 175 181 179 184 175 173 174 166 167 162 154 158 157 141 121 107 108 141 157 162 185 228 289 295 311 325 324 308 286 291 291 286 250 225 236 242 244 245 243 253 259 258 256
177 183 176 171 173 173 177 161 147 146 151 158 147 138 137 139 154 191 228 189 126 15 311 303 317 333 339 327 301 290 286 271 263 236 240 248 252 250 246 246 257 261 266 274
158 168 155 152 159 154 156 154 151 152 150 139 130 137 154 166 180 199 189 146 158 258 285 288 294 301 300 292 297 280 272 276 291 283 255 252 259 261 258 263 267 265 262 270
122 129 122 120 128 138 145 145 139 144 151 143 137 140 165 206 211 206 174 188 225 235 251 269 273 278 278 283 288 253 256 261 267 274 268 256 253 261 262 261 260 260 263 255
133 137 129 130 134 143 148 149 146 149 148 145 153 167 184 214 217 186 156 251 275 268 266 277 263 268 265 291 298 285 274 264 259 256 257 256 257 266 267 262 261 263 264 264
139 138 135 136 137 146 158 154 154 157 156 159 159 153 152 192 251 291 245 234 248 253 249 266 255 259 278 301 309 295 279 259 255 256 262 258 253 263 262 256 253 261 263 263
166 149 139 145 152 154 146 148 153 156 162 164 164 170 186 209 205 204 278 277 254 246 239 246 253 264 277 296 307 300 296 279 267 277 269 252 250 254 259 262 261 263 265 268
139 137 142 149 140 129 140 183 166 165 170 173 183 192 190 213 272 262 248 261 254 254 250 253 257 263 268 268 313 319 305 297 300 297 286 272 265 275 282 282 278 282 281 282
151 144 136 130 139 164 178 169 144 153 163 173 202 225 220 210 223 251 258 258 259 260 270 268 260 261 257 252 256 291 293 288 302 309 291 294 299 302 298 289 286 285 285 282
160 164 169 170 173 176 172 161 168 180 166 178 224 237 241 243 233 241 252 256 263 272 272 278 279 269 265 263 265 283 280 281 291 271 249 207 219 239 283 302 313 302 292 283
83 117 111 87 43 170 165 166 175 196 197 196 216 232 228 225 217 222 235 249 260 265 258 267 263 223 212 203 236 280 277 281 284 213 158 192 220 232 262 284 271 294 321 327